Hauptseite
METAR-TAF:

METAR-TAF

Flughäfen :

Paganella, Italien

Breite: 46-09N, Länge: 011-02E, Höhe: 2125 m

Beobachtung

Neuester Wetterbericht von vor 1 Stunde und 10 Minuten, um 00:55 UTC
Wind 10 kt aus Nord/Nordost
Temperatur 9°C
Luftfeuchtigkeit 87%
Luftdruck 1019 hPa
Sichtweite 10 km oder mehr
keine Wolken unter 1500 m und keine Kumulonimbus oder Gewitterwolken

METAR: LIVP 170055Z 02010KT CAVOK 09/07 Q1019 RMK SKC MON LIB VAL NIL VIS MIN 9999

Zeit: 04:05 (02:05 UTC)


TAF: fehlend

Wetterbeobachtungen und Prognosen von mehr als 4000 Flughäfen (METAR und TAF Bericht).

Die verfügbaren Stationen werden durch gelbe und rote Markierungen auf der Karte dargestellt.

Führen Sie die Maus auf sie, um den Namen der Station zu sehen.

Darauf klicken, um die Beobachtung von Wetterbeobachtungen und Prognosen zu sehen.

Um die Karte zu ändern : klicken Sie auf den grünen Tasten mit einem schwarzen Kreuz Zum Vergrößern, auf den grünen Button mit einem Gedankenstrich zu verkleinern, oder auf die grünen Pfeile für benachbarte Karten.


METAR-TAF: